Showing default

GALAXY 11, 26038

Orbit data source: Space-Track

GALAXY 11, 26038 is a payload satellite owned by Panamsat (US) in GEO that was launched on Wed, 22 Dec 1999 UTC via an ARIANE 44L launch vehicle from the French Guiana (FRGUI). Payloads include a variety of satellites, spacecraft, and rockets equipped with specific instruments for various scientific and technological missions. These include communications satellites like Starlink; space stations such as the ISS; scientific satellites like the Hubble; Earth observation satellites from companies like Planet Labs, Umbra, and HawkEye 360; GPS; miniature CubeSats for education and research; and military/defense satellites.

Not visible in the next 10 days
GALAXY 11 details
Identifier
26038, 1999-071A
Orbit
GEO
Last TLE update22 hours ago
Origin
Flag of USPanamsat (US)
ManufacturerHughes
MissionOperational Commercial Communications
Bus & MotorHS-702, R-4D-11-300
Mass4,484 kg wet, ~4,400 kg dry
Launch date (UTC)
1999-12-22 (25 years ago)
Launch vehicle
ARIANE 44L
Launch site
French Guiana (FRGUI)
Object type
Payload
Rocket body
Debris
Shape & HBRBox + 2 Pan, 34 m
Radar Cross Section53.041 m², Large (>1 m²)

Expand to show TLE details & history

TLE from 22 hours ago
0 GALAXY 11
1 26038U 99071A   25035.33460521 -.00000103  00000-0  00000-0 0  9999
2 26038   5.4749  76.5727 0007883 287.4352  80.2066  0.99030510 92089
Epoch: 2025-02-04T08:01Z
Definitive object data (Epoch: 2025-02-04T08:01:49.89Z)
Latitude0.73°
Longitude-170.91214°
Altitude36,132.096 km
Speed3.062 km/s
True Right ascension05h 37m 08s
True Declination0° 43' 45"
Sunlit
Object was in daylight at TLE epoch
Visualization TLE readout
Latitude-2.19673°
Longitude157.96652°
Altitude36,116.066 km
Speed3.064 km/s
Apparent Right ascension03h 06m 55s
Apparent Declination-7° 54' 23"
Sunlit
Object is in daylight
Visualization observer readout
Local Sidereal Time08:11:52
Azimuth255.059° W
Elevation5.307°
Doppler factor1
Orbital elements
Apogee altitude36,172.763 km
Perigee altitude36,105.73 km
Semi-major axis42,517.384 km
Eccentricity0.0007883
Inclination5.4749°
RAAN76.5727°
Arg. of periapsis287.4352°
True anomaly80.29563°
Mean anomaly80.2066°
Eccentric anomaly80.25111°
Mean motion0.24757 °/min
BSTARUnknown
Orbital period1454.15 mins
Loading historical data...
26038 neighbors
Authenticating...
Loading maneuver chart data...
Loading historical data...
Loading historical data...
Loading historical data...
Loading historical data...
Loading historical data...
Loading historical data...
Loading historical data...
Other satellites on launch #71 in the year 1999 (1999-12-22 UTC)

GALAXY 11 Visibility forecast

Observer location: undefined°, undefined

GALAXY 11 is not visible in the next 10 days
Span
Click to sort rows by Start time (UTC) header in descending order
Start Az.
Max El. time (UTC)
Max El. Az.
Max El.
End time (UTC)
End Az.
|